Location: Wien
(48.2082°N, 16.3738°E)
Time: 08:37:16
(UTC+02:00)

UNISAT 6 - Pass Details

Date: 29 April 2024
Orbit: 593 x 668 km, 97.7° (Epoch: 20 May)

Event Time Altitude Azimuth Distance (km) Brightness Sun altitude
Rises 04:50:57 0° 170° (S) 2,897 ? -7.9°
Reaches altitude 10° 04:53:09 10° 172° (S) 1,983 ? -7.6°
Maximum altitude 04:57:27 73° 257° (WSW) 644 ? -6.9°
Drops below altitude 10° 05:01:42 10° 343° (NNW) 1,959 ? -6.3°
Sets 05:03:53 0° 346° (NNW) 2,859 ? -6.0°
